| time (UTC) | temp F | wind direction | speed MPH | gust MPH | rain 1hr in | rain 24hr in | rain mn in | humidity % | barometer mb |
| 20260902062520 | 61 | 360 | 1.0 | 3.0 | 0.00 | 0.00 | 0.00 | 97 | 1023.6 |
| 20260902062019 | 61 | 0 | 0.0 | 0.0 | 0.00 | 0.00 | 0.00 | 97 | 1023.6 |
| 20260902061535 | 61 | 0 | 0.0 | 3.0 | 0.00 | 0.00 | 0.00 | 97 | 1023.7 |
| 20260902061017 | 61 | 0 | 0.0 | 3.0 | 0.00 | 0.00 | 0.00 | 97 | 1023.6 |
| 20260902060517 | 61 | 360 | 1.0 | 3.0 | 0.00 | 0.00 | 0.00 | 97 | 1023.7 |
| 20260902060040 | 61 | 360 | 0.0 | 2.0 | 0.00 | 0.00 | 0.00 | 97 | 1023.9 |
| 20260902055522 | 61 | 0 | 0.0 | 1.0 | 0.00 | 0.00 | 0.00 | 97 | 1024.0 |
| 20260902055019 | 61 | 0 | 0.0 | 1.0 | 0.00 | 0.00 | 0.00 | 97 | 1023.9 |
| 20260902054541 | 61 | 0 | 0.0 | 2.0 | 0.00 | 0.00 | 0.00 | 97 | 1023.8 |
| 20260902054021 | 61 | 0 | 0.0 | 2.0 | 0.00 | 0.00 | 0.00 | 97 | 1023.6 |
| 20260902053517 | 61 | 360 | 0.0 | 3.0 | 0.00 | 0.00 | 0.00 | 97 | 1023.5 |
| 20260902053044 | 61 | 0 | 0.0 | 3.0 | 0.00 | 0.00 | 0.00 | 97 | 1023.5 |
| 20260902052523 | 61 | 360 | 0.0 | 3.0 | 0.00 | 0.00 | 0.00 | 97 | 1023.3 |
| 20260902052019 | 61 | 0 | 0.0 | 1.0 | 0.00 | 0.00 | 0.00 | 97 | 1023.3 |
| 20260902051538 | 61 | 0 | 0.0 | 0.0 | 0.00 | 0.00 | 0.00 | 97 | 1023.2 |
| 20260902051019 | 61 | 0 | 0.0 | 0.0 | 0.00 | 0.00 | 0.00 | 97 | 1023.1 |
| 20260902050519 | 61 | 0 | 0.0 | 3.0 | 0.00 | 0.00 | 0.00 | 97 | 1023.0 |
| 20260902050040 | 61 | 0 | 0.0 | 6.0 | 0.00 | 0.00 | 0.00 | 97 | 1022.9 |
| 20260902045517 | 62 | 360 | 2.0 | 6.0 | 0.00 | 0.00 | 0.00 | 97 | 1022.7 |
| 20260902045016 | 61 | 360 | 2.0 | 5.0 | 0.00 | 0.00 | 0.00 | 97 | 1022.7 |
| 20260902044539 | 62 | 0 | 0.0 | 3.0 | 0.00 | 0.00 | 0.00 | 97 | 1022.6 |
| 20260902044019 | 62 | 0 | 0.0 | 0.0 | 0.00 | 0.00 | 0.00 | 97 | 1022.7 |
| 20260902043520 | 61 | 0 | 0.0 | 0.0 | 0.00 | 0.00 | 0.00 | 97 | 1022.6 |
| 20260902043036 | 62 | 0 | 0.0 | 0.0 | 0.00 | 0.00 | 0.00 | 97 | 1022.6 |
| 20260902042519 | 62 | 0 | 0.0 | 4.0 | 0.00 | 0.00 | 0.00 | 96 | 1022.6 |
| 20260902042021 | 61 | 0 | 0.0 | 4.0 | 0.00 | 0.00 | 0.00 | 97 | 1022.5 |
| 20260902041537 | 61 | 0 | 0.0 | 3.0 | 0.00 | 0.00 | 0.00 | 96 | 1022.5 |
| 20260902041020 | 61 | 0 | 0.0 | 3.0 | 0.00 | 0.00 | 0.00 | 96 | 1022.4 |
| 20260902040522 | 61 | 0 | 0.0 | 3.0 | 0.00 | 0.00 | 0.00 | 96 | 1022.3 |
| 20260902040035 | 61 | 360 | 0.0 | 4.0 | 0.00 | 0.00 | 0.00 | 96 | 1022.3 |
| 20260902035520 | 61 | 360 | 1.0 | 4.0 | 0.00 | 0.00 | 0.00 | 96 | 1022.4 |
| 20260902035017 | 61 | 0 | 0.0 | 2.0 | 0.00 | 0.00 | 0.00 | 96 | 1022.4 |
| 20260902034537 | 61 | 0 | 0.0 | 1.0 | 0.00 | 0.00 | 0.00 | 96 | 1022.3 |
| 20260902034019 | 61 | 0 | 0.0 | 1.0 | 0.00 | 0.00 | 0.00 | 96 | 1022.4 |
| 20260902033520 | 61 | 0 | 0.0 | 0.0 | 0.00 | 0.00 | 0.00 | 95 | 1022.4 |
| 20260902033037 | 61 | 0 | 0.0 | 0.0 | 0.00 | 0.00 | 0.00 | 96 | 1022.4 |
| 20260902032521 | 61 | 0 | 0.0 | 0.0 | 0.00 | 0.00 | 0.00 | 96 | 1022.3 |
| 20260902032021 | 61 | 0 | 0.0 | 0.0 | 0.00 | 0.00 | 0.00 | 95 | 1022.1 |
| 20260902031536 | 62 | 0 | 0.0 | 0.0 | 0.00 | 0.00 | 0.00 | 95 | 1022.1 |
| 20260902031019 | 62 | 0 | 0.0 | 0.0 | 0.00 | 0.00 | 0.00 | 95 | 1022.2 |
| 20260902030518 | 62 | 0 | 0.0 | 0.0 | 0.00 | 0.00 | 0.00 | 95 | 1022.2 |
| 20260902030035 | 62 | 0 | 0.0 | 2.0 | 0.00 | 0.00 | 0.00 | 95 | 1022.1 |
| 20260902025518 | 62 | 0 | 0.0 | 4.0 | 0.00 | 0.00 | 0.00 | 95 | 1022.1 |
| 20260902025021 | 62 | 0 | 0.0 | 4.0 | 0.00 | 0.00 | 0.00 | 95 | 1022.0 |
| 20260902024536 | 62 | 360 | 1.0 | 4.0 | 0.00 | 0.00 | 0.00 | 95 | 1021.9 |
| 20260902024019 | 62 | 0 | 1.0 | 4.0 | 0.00 | 0.00 | 0.00 | 95 | 1021.9 |
| 20260902023520 | 62 | 360 | 0.0 | 4.0 | 0.00 | 0.00 | 0.00 | 95 | 1021.9 |
| 20260902023042 | 62 | 0 | 0.0 | 2.0 | 0.00 | 0.00 | 0.00 | 95 | 1021.9 |
| 20260902022521 | 62 | 0 | 0.0 | 2.0 | 0.00 | 0.00 | 0.00 | 95 | 1022.1 |
| 20260902022021 | 62 | 0 | 0.0 | 0.0 | 0.00 | 0.00 | 0.00 | 95 | 1022.2 |
| 20260902021534 | 63 | 0 | 0.0 | 0.0 | 0.00 | 0.00 | 0.00 | 95 | 1022.2 |
| 20260902021018 | 63 | 0 | 0.0 | 0.0 | 0.00 | 0.00 | 0.00 | 94 | 1022.1 |
| 20260902020518 | 63 | 0 | 0.0 | 0.0 | 0.00 | 0.00 | 0.00 | 94 | 1022.2 |
| 20260902020035 | 63 | 0 | 0.0 | 0.0 | 0.00 | 0.00 | 0.00 | 94 | 1022.1 |
| 20260902015520 | 63 | 0 | 0.0 | 0.0 | 0.00 | 0.00 | 0.00 | 94 | 1022.1 |
| 20260902015019 | 63 | 0 | 0.0 | 0.0 | 0.00 | 0.00 | 0.00 | 94 | 1022.2 |
| 20260902014542 | 63 | 0 | 0.0 | 0.0 | 0.00 | 0.00 | 0.00 | 94 | 1022.2 |
| 20260902014021 | 63 | 0 | 0.0 | 0.0 | 0.00 | 0.00 | 0.00 | 94 | 1022.3 |
| 20260902013519 | 63 | 0 | 0.0 | 0.0 | 0.00 | 0.00 | 0.00 | 93 | 1022.3 |
| 20260902013035 | 63 | 0 | 0.0 | 0.0 | 0.00 | 0.00 | 0.00 | 93 | 1022.4 |
| 20260902012519 | 63 | 0 | 0.0 | 4.0 | 0.00 | 0.00 | 0.00 | 93 | 1022.4 |
| 20260902012019 | 63 | 0 | 0.0 | 5.0 | 0.00 | 0.00 | 0.00 | 93 | 1022.3 |
| 20260902011546 | 63 | 360 | 1.0 | 6.0 | 0.00 | 0.00 | 0.00 | 92 | 1022.2 |
| 20260902011018 | 64 | 0 | 2.0 | 6.0 | 0.00 | 0.00 | 0.00 | 92 | 1022.2 |
| 20260902010517 | 64 | 360 | 3.0 | 6.0 | 0.00 | 0.00 | 0.00 | 92 | 1022.1 |
| 20260902010034 | 64 | 360 | 2.0 | 5.0 | 0.00 | 0.00 | 0.00 | 91 | 1022.1 |
| 20260902005519 | 64 | 360 | 0.0 | 4.0 | 0.00 | 0.00 | 0.00 | 91 | 1022.1 |
| 20260902005020 | 64 | 0 | 0.0 | 0.0 | 0.00 | 0.00 | 0.00 | 91 | 1022.0 |
| 20260902004538 | 64 | 0 | 0.0 | 0.0 | 0.00 | 0.00 | 0.00 | 91 | 1022.0 |
| 20260902004019 | 64 | 0 | 0.0 | 3.0 | 0.00 | 0.00 | 0.00 | 91 | 1022.0 |
| 20260902003520 | 64 | 0 | 0.0 | 5.0 | 0.00 | 0.00 | 0.00 | 91 | 1022.0 |
| 20260902003037 | 64 | 0 | 0.0 | 5.0 | 0.00 | 0.00 | 0.00 | 91 | 1022.0 |
| 20260902002516 | 64 | 360 | 1.0 | 5.0 | 0.00 | 0.00 | 0.00 | 91 | 1021.9 |
| 20260902002021 | 64 | 360 | 2.0 | 8.0 | 0.00 | 0.00 | 0.00 | 90 | 1021.7 |
| 20260902001535 | 64 | 360 | 2.0 | 8.0 | 0.00 | 0.00 | 0.00 | 90 | 1021.6 |
| 20260902001019 | 64 | 360 | 4.0 | 8.0 | 0.00 | 0.00 | 0.00 | 90 | 1021.5 |
| 20260902000517 | 64 | 360 | 3.0 | 8.0 | 0.00 | 0.00 | 0.00 | 90 | 1021.5 |
| 20260902000043 | 65 | 360 | 3.0 | 6.0 | 0.00 | 0.00 | 0.00 | 89 | 1021.4 |
| 20260901235521 | 65 | 360 | 2.0 | 5.0 | 0.00 | 0.00 | 0.00 | 89 | 1021.5 |
| 20260901235020 | 65 | 360 | 1.0 | 5.0 | 0.00 | 0.00 | 0.00 | 89 | 1021.6 |
| 20260901234537 | 65 | 360 | 0.0 | 5.0 | 0.00 | 0.00 | 0.00 | 88 | 1021.5 |
| 20260901234020 | 65 | 0 | 2.0 | 4.0 | 0.00 | 0.00 | 0.00 | 88 | 1021.5 |
| 20260901233520 | 65 | 360 | 0.0 | 4.0 | 0.00 | 0.00 | 0.00 | 88 | 1021.5 |
| 20260901233036 | 65 | 360 | 1.0 | 4.0 | 0.00 | 0.00 | 0.00 | 87 | 1021.5 |
| 20260901232517 | 65 | 360 | 0.0 | 4.0 | 0.00 | 0.00 | 0.00 | 87 | 1021.6 |
| 20260901232018 | 65 | 0 | 1.0 | 8.0 | 0.00 | 0.00 | 0.00 | 87 | 1021.6 |
| 20260901231536 | 65 | 360 | 1.0 | 8.0 | 0.00 | 0.00 | 0.00 | 87 | 1021.5 |
| 20260901231017 | 66 | 0 | 0.0 | 5.0 | 0.00 | 0.00 | 0.00 | 86 | 1021.6 |
| 20260901230518 | 66 | 360 | 0.0 | 5.0 | 0.00 | 0.00 | 0.00 | 86 | 1021.7 |
| 20260901230036 | 66 | 360 | 1.0 | 5.0 | 0.00 | 0.00 | 0.00 | 85 | 1021.6 |
| 20260901225520 | 66 | 0 | 0.0 | 4.0 | 0.00 | 0.00 | 0.00 | 85 | 1021.6 |
| 20260901225018 | 66 | 0 | 0.0 | 4.0 | 0.00 | 0.00 | 0.00 | 84 | 1021.5 |
| 20260901224541 | 66 | 360 | 1.0 | 6.0 | 0.00 | 0.00 | 0.00 | 83 | 1021.4 |
| 20260901224019 | 66 | 360 | 3.0 | 6.0 | 0.00 | 0.00 | 0.00 | 83 | 1021.3 |
| 20260901223519 | 67 | 360 | 2.0 | 8.0 | 0.00 | 0.00 | 0.00 | 82 | 1021.3 |
| 20260901223036 | 67 | 360 | 3.0 | 8.0 | 0.00 | 0.00 | 0.00 | 81 | 1021.3 |
| 20260901222519 | 67 | 0 | 3.0 | 8.0 | 0.00 | 0.00 | 0.00 | 81 | 1021.1 |
| 20260901222016 | 67 | 360 | 3.0 | 8.0 | 0.00 | 0.00 | 0.00 | 80 | 1021.1 |
| 20260901221547 | 68 | 360 | 3.0 | 8.0 | 0.00 | 0.00 | 0.00 | 80 | 1021.1 |
| 20260901221018 | 68 | 360 | 3.0 | 8.0 | 0.00 | 0.00 | 0.00 | 80 | 1021.1 |
| 20260901220517 | 68 | 360 | 4.0 | 10.0 | 0.00 | 0.00 | 0.00 | 79 | 1021.1 |
| 20260901220041 | 69 | 360 | 4.0 | 10.0 | 0.00 | 0.00 | 0.00 | 79 | 1021.1 |
| 20260901215517 | 69 | 360 | 2.0 | 7.0 | 0.00 | 0.00 | 0.00 | 79 | 1021.1 |
| 20260901215020 | 69 | 155 | 3.0 | 7.0 | 0.00 | 0.00 | 0.00 | 78 | 1021.2 |
| 20260901214553 | 69 | 134 | 2.0 | 7.0 | 0.00 | 0.00 | 0.00 | 78 | 1021.2 |
| 20260901214019 | 69 | 360 | 1.0 | 8.0 | 0.00 | 0.00 | 0.00 | 77 | 1021.2 |
| 20260901213519 | 69 | 160 | 3.0 | 9.0 | 0.00 | 0.00 | 0.00 | 77 | 1021.1 |
| 20260901213036 | 69 | 150 | 4.0 | 9.0 | 0.00 | 0.00 | 0.00 | 76 | 1021.0 |
| 20260901212516 | 69 | 0 | 2.0 | 9.0 | 0.00 | 0.00 | 0.00 | 76 | 1021.0 |
| 20260901212019 | 69 | 150 | 3.0 | 9.0 | 0.00 | 0.00 | 0.00 | 75 | 1020.9 |
| 20260901211535 | 69 | 138 | 4.0 | 9.0 | 0.00 | 0.00 | 0.00 | 74 | 1020.9 |
| 20260901211018 | 70 | 144 | 2.0 | 12.0 | 0.00 | 0.00 | 0.00 | 72 | 1020.9 |
| 20260901210521 | 70 | 147 | 3.0 | 12.0 | 0.00 | 0.00 | 0.00 | 71 | 1020.9 |
| 20260901210037 | 70 | 127 | 2.0 | 11.0 | 0.00 | 0.00 | 0.00 | 69 | 1020.8 |
| 20260901205520 | 70 | 146 | 4.0 | 11.0 | 0.00 | 0.00 | 0.00 | 68 | 1020.7 |
| 20260901205020 | 70 | 142 | 5.0 | 11.0 | 0.00 | 0.00 | 0.00 | 69 | 1020.7 |
| 20260901204537 | 70 | 125 | 5.0 | 11.0 | 0.00 | 0.00 | 0.00 | 69 | 1020.7 |
| 20260901204020 | 70 | 53 | 3.0 | 10.0 | 0.00 | 0.00 | 0.00 | 70 | 1020.6 |
| 20260901203518 | 70 | 90 | 6.0 | 10.0 | 0.00 | 0.00 | 0.00 | 71 | 1020.6 |
| 20260901203037 | 70 | 134 | 4.0 | 10.0 | 0.00 | 0.00 | 0.00 | 71 | 1020.6 |
| 20260901202518 | 70 | 360 | 4.0 | 11.0 | 0.00 | 0.00 | 0.00 | 74 | 1020.5 |
| 20260901202016 | 70 | 360 | 3.0 | 11.0 | 0.00 | 0.00 | 0.00 | 73 | 1020.6 |
| 20260901201535 | 70 | 360 | 4.0 | 10.0 | 0.00 | 0.00 | 0.00 | 73 | 1020.7 |
| 20260901201020 | 69 | 360 | 5.0 | 10.0 | 0.00 | 0.00 | 0.00 | 71 | 1020.7 |
| 20260901200520 | 69 | 360 | 2.0 | 10.0 | 0.00 | 0.00 | 0.00 | 71 | 1020.7 |
| 20260901200036 | 69 | 360 | 5.0 | 10.0 | 0.00 | 0.00 | 0.00 | 71 | 1020.6 |
| 20260901195518 | 69 | 360 | 6.0 | 10.0 | 0.00 | 0.00 | 0.00 | 71 | 1020.6 |
| 20260901195021 | 69 | 360 | 4.0 | 10.0 | 0.00 | 0.00 | 0.00 | 74 | 1020.6 |
| 20260901194537 | 69 | 360 | 3.0 | 9.0 | 0.00 | 0.00 | 0.00 | 73 | 1020.6 |
| 20260901194020 | 69 | 360 | 2.0 | 8.0 | 0.00 | 0.00 | 0.00 | 73 | 1020.6 |
| 20260901193518 | 69 | 360 | 4.0 | 8.0 | 0.00 | 0.00 | 0.00 | 73 | 1020.7 |
| 20260901193035 | 69 | 360 | 2.0 | 8.0 | 0.00 | 0.00 | 0.00 | 73 | 1020.7 |
| 20260901192519 | 69 | 360 | 3.0 | 8.0 | 0.00 | 0.00 | 0.00 | 73 | 1020.8 |
| 20260901192017 | 69 | 360 | 2.0 | 6.0 | 0.00 | 0.00 | 0.00 | 72 | 1020.8 |
| 20260901191541 | 69 | 360 | 2.0 | 6.0 | 0.00 | 0.00 | 0.00 | 71 | 1020.8 |
| 20260901191016 | 69 | 360 | 2.0 | 6.0 | 0.00 | 0.00 | 0.00 | 71 | 1020.8 |
| 20260901190518 | 69 | 360 | 2.0 | 6.0 | 0.00 | 0.00 | 0.00 | 71 | 1020.8 |
| 20260901190043 | 69 | 360 | 3.0 | 8.0 | 0.00 | 0.00 | 0.00 | 70 | 1020.8 |
| 20260901185520 | 70 | 360 | 3.0 | 8.0 | 0.00 | 0.00 | 0.00 | 70 | 1020.8 |
| 20260901185018 | 70 | 360 | 3.0 | 6.0 | 0.00 | 0.00 | 0.00 | 69 | 1020.8 |
| 20260901184535 | 70 | 360 | 3.0 | 8.0 | 0.00 | 0.00 | 0.00 | 68 | 1020.8 |
| 20260901184019 | 70 | 360 | 2.0 | 9.0 | 0.00 | 0.00 | 0.00 | 67 | 1020.8 |
| 20260901183516 | 71 | 360 | 2.0 | 9.0 | 0.00 | 0.00 | 0.00 | 68 | 1020.7 |
| 20260901183058 | 71 | 146 | 4.0 | 9.0 | 0.00 | 0.00 | 0.00 | 67 | 1020.7 |
| 20260901182519 | 71 | 135 | 2.0 | 8.0 | 0.00 | 0.00 | 0.00 | 66 | 1020.7 |
| 20260901182018 | 71 | 123 | 3.0 | 9.0 | 0.00 | 0.00 | 0.00 | 65 | 1020.7 |
| 20260901181551 | 71 | 108 | 3.0 | 9.0 | 0.00 | 0.00 | 0.00 | 64 | 1020.7 |
| 20260901181017 | 71 | 360 | 4.0 | 9.0 | 0.00 | 0.00 | 0.00 | 65 | 1020.7 |
| 20260901180522 | 71 | 0 | 2.0 | 8.0 | 0.00 | 0.00 | 0.00 | 64 | 1020.6 |
| 20260901180035 | 71 | 128 | 2.0 | 9.0 | 0.00 | 0.00 | 0.00 | 64 | 1020.5 |
| 20260901175523 | 71 | 0 | 3.0 | 9.0 | 0.00 | 0.00 | 0.00 | 62 | 1020.6 |
| 20260901175020 | 72 | 133 | 3.0 | 10.0 | 0.00 | 0.00 | 0.00 | 63 | 1020.6 |
| 20260901174534 | 72 | 113 | 4.0 | 10.0 | 0.00 | 0.00 | 0.00 | 62 | 1020.5 |
| 20260901174019 | 71 | 134 | 3.0 | 12.0 | 0.00 | 0.00 | 0.00 | 63 | 1020.5 |
| 20260901173521 | 71 | 136 | 5.0 | 12.0 | 0.00 | 0.00 | 0.00 | 63 | 1020.4 |
| 20260901173040 | 70 | 136 | 4.0 | 11.0 | 0.00 | 0.00 | 0.00 | 64 | 1020.4 |
| 20260901172519 | 70 | 360 | 6.0 | 11.0 | 0.00 | 0.00 | 0.00 | 62 | 1020.4 |
| 20260901172020 | 70 | 360 | 6.0 | 11.0 | 0.00 | 0.00 | 0.00 | 63 | 1020.3 |
| 20260901171537 | 70 | 101 | 5.0 | 10.0 | 0.00 | 0.00 | 0.00 | 65 | 1020.4 |
| 20260901171019 | 70 | 360 | 6.0 | 11.0 | 0.00 | 0.00 | 0.00 | 64 | 1020.4 |
| 20260901170518 | 70 | 77 | 5.0 | 11.0 | 0.00 | 0.00 | 0.00 | 64 | 1020.5 |
| 20260901170035 | 71 | 68 | 2.0 | 12.0 | 0.00 | 0.00 | 0.00 | 64 | 1020.5 |
| 20260901165521 | 71 | 360 | 5.0 | 12.0 | 0.00 | 0.00 | 0.00 | 64 | 1020.5 |
| 20260901165018 | 70 | 360 | 2.0 | 11.0 | 0.00 | 0.00 | 0.00 | 64 | 1020.5 |
| 20260901164538 | 70 | 97 | 6.0 | 12.0 | 0.00 | 0.00 | 0.00 | 64 | 1020.4 |
| 20260901164022 | 70 | 129 | 6.0 | 12.0 | 0.00 | 0.00 | 0.00 | 63 | 1020.4 |
| 20260901163521 | 70 | 360 | 4.0 | 11.0 | 0.00 | 0.00 | 0.00 | 67 | 1020.4 |
| 20260901163039 | 69 | 117 | 3.0 | 11.0 | 0.00 | 0.00 | 0.00 | 70 | 1020.5 |
| 20260901162520 | 68 | 137 | 1.0 | 7.0 | 0.00 | 0.00 | 0.00 | 69 | 1020.6 |
| 20260901162021 | 68 | 0 | 0.0 | 7.0 | 0.00 | 0.00 | 0.00 | 71 | 1020.6 |
| 20260901161534 | 67 | 9 | 1.0 | 5.0 | 0.00 | 0.00 | 0.00 | 69 | 1020.7 |
| 20260901161017 | 67 | 0 | 0.0 | 5.0 | 0.00 | 0.00 | 0.00 | 71 | 1020.7 |
| 20260901160516 | 67 | 360 | 0.0 | 5.0 | 0.00 | 0.00 | 0.00 | 69 | 1020.7 |
| 20260901160038 | 67 | 37 | 2.0 | 6.0 | 0.00 | 0.00 | 0.00 | 70 | 1020.8 |
| 20260901155518 | 67 | 360 | 3.0 | 6.0 | 0.00 | 0.00 | 0.00 | 69 | 1020.8 |
| 20260901155019 | 67 | 0 | 1.0 | 5.0 | 0.00 | 0.00 | 0.00 | 70 | 1020.8 |
| 20260901154557 | 67 | 0 | 2.0 | 5.0 | 0.00 | 0.00 | 0.00 | 70 | 1020.8 |
| 20260901154023 | 66 | 32 | 1.0 | 6.0 | 0.00 | 0.00 | 0.00 | 70 | 1020.8 |
| 20260901153524 | 66 | 360 | 2.0 | 6.0 | 0.00 | 0.00 | 0.00 | 71 | 1020.9 |
| 20260901153045 | 66 | 360 | 1.0 | 11.0 | 0.00 | 0.00 | 0.00 | 70 | 1020.9 |
| 20260901152519 | 66 | 360 | 2.0 | 11.0 | 0.00 | 0.00 | 0.00 | 71 | 1020.8 |
| 20260901152018 | 65 | 360 | 5.0 | 11.0 | 0.00 | 0.00 | 0.00 | 72 | 1020.8 |
| 20260901151535 | 65 | 55 | 4.0 | 11.0 | 0.00 | 0.00 | 0.00 | 72 | 1020.8 |
| 20260901151018 | 64 | 360 | 1.0 | 6.0 | 0.00 | 0.00 | 0.00 | 73 | 1020.8 |
| 20260901150516 | 64 | 360 | 0.0 | 6.0 | 0.00 | 0.00 | 0.00 | 77 | 1020.8 |
| 20260901150035 | 63 | 0 | 1.0 | 6.0 | 0.00 | 0.00 | 0.00 | 74 | 1020.8 |
| 20260901145518 | 63 | 360 | 1.0 | 6.0 | 0.00 | 0.00 | 0.00 | 75 | 1020.7 |
| 20260901145020 | 63 | 360 | 1.0 | 6.0 | 0.00 | 0.00 | 0.00 | 75 | 1020.6 |
| 20260901144539 | 63 | 360 | 2.0 | 6.0 | 0.00 | 0.00 | 0.00 | 77 | 1020.5 |
| 20260901144019 | 63 | 360 | 2.0 | 6.0 | 0.00 | 0.00 | 0.00 | 75 | 1020.5 |
| 20260901143519 | 63 | 360 | 2.0 | 6.0 | 0.00 | 0.00 | 0.00 | 75 | 1020.6 |
| 20260901143039 | 63 | 360 | 1.0 | 6.0 | 0.00 | 0.00 | 0.00 | 76 | 1020.5 |
| 20260901142518 | 62 | 360 | 1.0 | 8.0 | 0.00 | 0.00 | 0.00 | 76 | 1020.5 |
| 20260901142020 | 62 | 0 | 2.0 | 8.0 | 0.00 | 0.00 | 0.00 | 75 | 1020.6 |
| 20260901141537 | 62 | 360 | 2.0 | 6.0 | 0.00 | 0.00 | 0.00 | 75 | 1020.4 |
| 20260901141017 | 62 | 360 | 1.0 | 8.0 | 0.00 | 0.00 | 0.00 | 75 | 1020.5 |
| 20260901140516 | 62 | 0 | 2.0 | 8.0 | 0.00 | 0.00 | 0.00 | 73 | 1020.6 |
| 20260901140039 | 62 | 360 | 2.0 | 8.0 | 0.00 | 0.00 | 0.00 | 73 | 1020.8 |
| 20260901135518 | 62 | 360 | 3.0 | 8.0 | 0.00 | 0.00 | 0.00 | 74 | 1020.8 |
| 20260901135017 | 61 | 0 | 2.0 | 6.0 | 0.00 | 0.00 | 0.00 | 73 | 1020.8 |
| 20260901134538 | 61 | 0 | 0.0 | 5.0 | 0.00 | 0.00 | 0.00 | 74 | 1020.8 |
| 20260901134020 | 61 | 0 | 0.0 | 12.0 | 0.00 | 0.00 | 0.00 | 73 | 1020.9 |
| 20260901133519 | 61 | 360 | 1.0 | 12.0 | 0.00 | 0.00 | 0.00 | 73 | 1020.8 |
| 20260901133038 | 61 | 360 | 5.0 | 15.0 | 0.00 | 0.00 | 0.00 | 73 | 1020.7 |
| 20260901132517 | 61 | 360 | 7.0 | 15.0 | 0.00 | 0.00 | 0.00 | 73 | 1020.7 |
| 20260901132018 | 61 | 360 | 6.0 | 15.0 | 0.00 | 0.00 | 0.00 | 73 | 1020.7 |
| 20260901131533 | 61 | 360 | 5.0 | 11.0 | 0.00 | 0.00 | 0.00 | 73 | 1020.6 |
| 20260901131018 | 61 | 360 | 7.0 | 13.0 | 0.00 | 0.00 | 0.00 | 74 | 1020.6 |
| 20260901130521 | 61 | 360 | 6.0 | 15.0 | 0.00 | 0.00 | 0.00 | 74 | 1020.6 |
| 20260901130040 | 61 | 360 | 7.0 | 15.0 | 0.00 | 0.00 | 0.00 | 73 | 1020.6 |
| 20260901125517 | 61 | 360 | 6.0 | 14.0 | 0.00 | 0.00 | 0.00 | 73 | 1020.6 |
| 20260901125022 | 61 | 360 | 7.0 | 14.0 | 0.00 | 0.00 | 0.00 | 74 | 1020.7 |
| 20260901124545 | 61 | 360 | 7.0 | 13.0 | 0.00 | 0.00 | 0.00 | 74 | 1020.9 |
| 20260901124020 | 61 | 360 | 8.0 | 14.0 | 0.00 | 0.00 | 0.00 | 74 | 1020.8 |
| 20260901123520 | 61 | 360 | 8.0 | 15.0 | 0.00 | 0.00 | 0.00 | 74 | 1020.8 |
| 20260901123037 | 61 | 360 | 9.0 | 15.0 | 0.00 | 0.00 | 0.00 | 74 | 1020.8 |
| 20260901122520 | 61 | 360 | 6.0 | 15.0 | 0.00 | 0.00 | 0.00 | 73 | 1020.8 |
| 20260901122021 | 61 | 360 | 8.0 | 13.0 | 0.00 | 0.00 | 0.00 | 73 | 1020.7 |
| 20260901121534 | 61 | 360 | 6.0 | 13.0 | 0.00 | 0.00 | 0.00 | 73 | 1020.8 |
| 20260901121020 | 61 | 360 | 6.0 | 14.0 | 0.00 | 0.00 | 0.00 | 74 | 1020.8 |
| 20260901120517 | 61 | 360 | 6.0 | 14.0 | 0.00 | 0.00 | 0.00 | 74 | 1020.9 |
| 20260901120037 | 61 | 360 | 6.0 | 14.0 | 0.00 | 0.00 | 0.00 | 73 | 1020.9 |
| 20260901115520 | 61 | 360 | 5.0 | 14.0 | 0.00 | 0.00 | 0.00 | 74 | 1020.9 |
| 20260901115019 | 61 | 360 | 6.0 | 14.0 | 0.00 | 0.00 | 0.00 | 74 | 1020.9 |
| 20260901114534 | 61 | 360 | 6.0 | 14.0 | 0.00 | 0.00 | 0.00 | 74 | 1020.8 |
| 20260901114019 | 61 | 360 | 7.0 | 14.0 | 0.00 | 0.00 | 0.00 | 74 | 1020.7 |
| 20260901113517 | 61 | 360 | 7.0 | 14.0 | 0.00 | 0.00 | 0.00 | 74 | 1020.6 |
| 20260901113044 | 61 | 360 | 9.0 | 14.0 | 0.00 | 0.00 | 0.00 | 75 | 1020.5 |
| 20260901112516 | 61 | 360 | 8.0 | 15.0 | 0.00 | 0.00 | 0.00 | 75 | 1020.6 |
| 20260901112017 | 61 | 360 | 7.0 | 15.0 | 0.00 | 0.00 | 0.00 | 75 | 1020.5 |
| 20260901111536 | 61 | 360 | 8.0 | 15.0 | 0.00 | 0.00 | 0.00 | 75 | 1020.5 |
| 20260901111016 | 61 | 360 | 7.0 | 15.0 | 0.00 | 0.00 | 0.00 | 74 | 1020.3 |
| 20260901110518 | 61 | 360 | 8.0 | 14.0 | 0.00 | 0.00 | 0.00 | 76 | 1020.2 |
| 20260901110047 | 61 | 360 | 8.0 | 16.0 | 0.00 | 0.00 | 0.00 | 75 | 1020.2 |
| 20260901105521 | 61 | 360 | 9.0 | 16.0 | 0.00 | 0.00 | 0.00 | 75 | 1020.2 |
| 20260901105022 | 61 | 360 | 9.0 | 16.0 | 0.00 | 0.00 | 0.00 | 75 | 1020.2 |
| 20260901104534 | 61 | 360 | 7.0 | 16.0 | 0.00 | 0.00 | 0.00 | 76 | 1020.1 |
| 20260901104018 | 61 | 360 | 9.0 | 16.0 | 0.00 | 0.00 | 0.00 | 76 | 1020.1 |
| 20260901103518 | 61 | 360 | 7.0 | 15.0 | 0.00 | 0.00 | 0.00 | 75 | 1020.2 |
| 20260901103034 | 61 | 360 | 7.0 | 14.0 | 0.00 | 0.00 | 0.00 | 75 | 1020.2 |
| 20260901102518 | 61 | 360 | 6.0 | 13.0 | 0.00 | 0.00 | 0.00 | 75 | 1020.1 |
| 20260901102017 | 61 | 360 | 6.0 | 14.0 | 0.00 | 0.00 | 0.00 | 75 | 1019.9 |
| 20260901101539 | 61 | 360 | 8.0 | 16.0 | 0.00 | 0.00 | 0.00 | 75 | 1019.9 |
| 20260901101016 | 61 | 360 | 7.0 | 16.0 | 0.00 | 0.00 | 0.00 | 76 | 1019.8 |
| 20260901100520 | 61 | 360 | 6.0 | 15.0 | 0.00 | 0.00 | 0.00 | 76 | 1019.7 |
| 20260901100037 | 61 | 360 | 7.0 | 15.0 | 0.00 | 0.00 | 0.00 | 76 | 1019.7 |
| 20260901095520 | 61 | 360 | 8.0 | 13.0 | 0.00 | 0.00 | 0.00 | 76 | 1019.6 |
| 20260901095021 | 62 | 360 | 7.0 | 14.0 | 0.00 | 0.00 | 0.00 | 76 | 1019.7 |
| 20260901094537 | 62 | 360 | 8.0 | 14.0 | 0.00 | 0.00 | 0.00 | 75 | 1019.8 |
| 20260901094021 | 62 | 360 | 7.0 | 14.0 | 0.00 | 0.00 | 0.00 | 74 | 1019.7 |
| 20260901093521 | 62 | 360 | 6.0 | 14.0 | 0.00 | 0.00 | 0.00 | 74 | 1019.9 |
| 20260901093040 | 62 | 360 | 6.0 | 14.0 | 0.00 | 0.00 | 0.00 | 75 | 1020.0 |
| 20260901092518 | 62 | 360 | 7.0 | 14.0 | 0.00 | 0.00 | 0.00 | 75 | 1020.0 |
| 20260901092019 | 62 | 360 | 6.0 | 13.0 | 0.00 | 0.00 | 0.00 | 76 | 1020.0 |
| 20260901091535 | 62 | 360 | 5.0 | 13.0 | 0.00 | 0.00 | 0.00 | 76 | 1020.0 |
| 20260901091018 | 62 | 360 | 6.0 | 13.0 | 0.00 | 0.00 | 0.00 | 76 | 1019.9 |
| 20260901090518 | 62 | 360 | 7.0 | 13.0 | 0.00 | 0.00 | 0.00 | 76 | 1019.9 |
| 20260901090035 | 62 | 360 | 8.0 | 13.0 | 0.00 | 0.00 | 0.00 | 76 | 1019.9 |
| 20260901085519 | 62 | 360 | 7.0 | 14.0 | 0.00 | 0.00 | 0.00 | 77 | 1020.0 |
| 20260901085017 | 62 | 360 | 7.0 | 14.0 | 0.00 | 0.00 | 0.00 | 77 | 1020.0 |
| 20260901084538 | 62 | 360 | 8.0 | 15.0 | 0.00 | 0.00 | 0.00 | 77 | 1019.9 |
| 20260901084019 | 62 | 360 | 7.0 | 15.0 | 0.00 | 0.00 | 0.00 | 77 | 1019.9 |
| 20260901083524 | 62 | 360 | 7.0 | 15.0 | 0.00 | 0.00 | 0.00 | 77 | 1019.8 |
| 20260901083033 | 62 | 360 | 7.0 | 13.0 | 0.00 | 0.00 | 0.00 | 77 | 1020.0 |
| 20260901082517 | 62 | 360 | 8.0 | 14.0 | 0.00 | 0.00 | 0.00 | 77 | 1020.0 |
| 20260901082017 | 62 | 360 | 6.0 | 14.0 | 0.00 | 0.00 | 0.00 | 77 | 1020.0 |
| 20260901081535 | 62 | 360 | 6.0 | 11.0 | 0.00 | 0.00 | 0.00 | 77 | 1020.0 |
| 20260901081021 | 62 | 360 | 6.0 | 13.0 | 0.00 | 0.00 | 0.00 | 77 | 1020.0 |
| 20260901080517 | 62 | 360 | 5.0 | 13.0 | 0.00 | 0.00 | 0.00 | 77 | 1020.1 |
| 20260901080053 | 62 | 360 | 7.0 | 12.0 | 0.00 | 0.00 | 0.00 | 77 | 1020.2 |
| 20260901075521 | 62 | 360 | 6.0 | 12.0 | 0.00 | 0.00 | 0.00 | 78 | 1020.1 |
| 20260901075020 | 62 | 360 | 7.0 | 12.0 | 0.00 | 0.00 | 0.00 | 78 | 1020.2 |
| 20260901074537 | 62 | 360 | 7.0 | 12.0 | 0.00 | 0.00 | 0.00 | 79 | 1020.2 |
| 20260901074018 | 62 | 360 | 6.0 | 12.0 | 0.00 | 0.00 | 0.00 | 79 | 1020.2 |
| 20260901073517 | 62 | 360 | 6.0 | 12.0 | 0.00 | 0.00 | 0.00 | 79 | 1020.2 |
| 20260901073036 | 62 | 360 | 7.0 | 12.0 | 0.00 | 0.00 | 0.00 | 78 | 1020.1 |
| 20260901072516 | 62 | 360 | 7.0 | 12.0 | 0.00 | 0.00 | 0.00 | 78 | 1020.1 |
| 20260901072017 | 62 | 360 | 7.0 | 12.0 | 0.00 | 0.00 | 0.00 | 77 | 1020.2 |
| 20260901071535 | 62 | 360 | 7.0 | 12.0 | 0.00 | 0.00 | 0.00 | 77 | 1020.3 |
| 20260901071017 | 63 | 360 | 6.0 | 11.0 | 0.00 | 0.00 | 0.00 | 76 | 1020.4 |
| 20260901070523 | 63 | 360 | 6.0 | 10.0 | 0.00 | 0.00 | 0.00 | 75 | 1020.4 |
| 20260901070045 | 63 | 360 | 6.0 | 10.0 | 0.00 | 0.00 | 0.00 | 75 | 1020.4 |
| 20260901065520 | 63 | 360 | 6.0 | 12.0 | 0.00 | 0.00 | 0.00 | 74 | 1020.4 |
| 20260901065020 | 63 | 360 | 7.0 | 12.0 | 0.00 | 0.00 | 0.00 | 73 | 1020.4 |
| 20260901064537 | 63 | 360 | 6.0 | 11.0 | 0.00 | 0.00 | 0.00 | 72 | 1020.4 |
| 20260901064018 | 64 | 360 | 5.0 | 9.0 | 0.00 | 0.00 | 0.00 | 72 | 1020.4 |
| 20260901063519 | 64 | 360 | 4.0 | 8.0 | 0.00 | 0.00 | 0.00 | 71 | 1020.3 |
| 20260901063047 | 64 | 360 | 4.0 | 8.0 | 0.00 | 0.00 | 0.00 | 70 | 1020.3 |